SCP
0 0 0 0 0 0 0 0 0 0 0 0 0 0 0 0 0 0 0 0 0 0 0 0 0 0 0 0 0 0 0 0 0 0 0 0 0 0 0 0 0 0 0
0 0 0 0 0 0 0 0 0 0 0 0 0 0 0 0 0 0 0 0 0 0 0 0 0 0 0 0 0 0 0 0 0 0 0 0 0 0 0 0 0 0 0
0 0 0 0 0 0 0 0 0 0 0 0 0 0 0 0 0 0 0 0 0 0 0 0 0 0 0 0 0 0 0 0 0 0 0 0 0 0 0 0 0 0 0
0 0 0 0 0 0 0 0 0 0 0 0 0 0 0 0 0 0 0 0 0 0 0 0 0 0 0 0 0 0 0 0 0 0 0 0 0 0 0 0 0 0 0
0 0 0 0 0 0 0 0 0 0 0 0 0 0 0 0 0 0 0 0 0 0 0 0 0 0 0 0 0 0 0 0 0 0 0 0 0 0 0 0 0 0 0
0 0 0 0 0 0 0 0 0 0 0 0 0 0 0 0 0 0 0 0 0 0 0 0 0 0 0 0 0 0 0 0 0 0 0 0 0 0 0 0 0 0 0
0 0 0 0 0 0 0 0 0 0 0 0 0 0 0 0 0 0 0 0 0 0 0 0 0 0 0 0 0 0 0 0 0 0 0 0 0 0 0 0 0 0 0
0 0 0 0 0 0 0 0 0 0 0 0 0 0 0 0 0 0 0 0 0 0 0 0 0 0 0 0 0 0 0 0 0 0 0 0 0 0 0 0 0 0 0
0 0 0 0 0 0 0 0 0 0 0 0 0 0 0 0 0 0 0 0 0 0 0 0 0 0 0 0 0 0 0 0 0 0 0 0 0 0 0 0 0 0 0
0 0 0 0 0 0 0 0 0 0 0 0 0 0 0 0 0 0 0 0 0 0 0 0 0 0 0 0 0 0 0 0 0 0 0 0 0 0 0 0 0 0 0
0 0 0 0 0 0 0 0 0 0 0 0 0 0 0 0 0 0 0 0 0 0 0 0 0 0 0 0 0 0 0 0 0 0 0 0 0 0 0 0 0 0 0
0 0 0 0 0 0 0 0 0 0 0 0 0 0 0 0 0 0 0 0 0 0 0 0 0 0 0 0 0 0 0 0 0 0 0 0 0 0 0 0 0 0 0
0 0 0 0 0 0 0 0 0 0 0 0 0 0 0 0 0 0 0 0 0 0 0 0 0 0 0 0 0 0 0 0 0 0 0 0 0 0 0 0 0 0 0
0 0 0 0 0 0 0 0 0 0 0 0 0 0 0 0 0 0 0 0 0 0 0 0 0 0 0 0 0 0 0 0 0 0 0 0 0 0 0 0 0 0 0
0 0 0 0 0 0 0 0 0 0 0 0 0 0 0 0 0 0 0 0 0 0 0 0 0 0 0 0 0 0 0 0 0 0 0 0 0 0 0 0 0 0 0
0 0 0 0 0 0 0 0 0 0 0 0 0 0 0 0 0 0 0 0 0 0 0 0 0 0 0 0 0 0 0 0 0 0 0 0 0 0 0 0 0 0 0
0 0 0 0 0 0 0 0 0 0 0 0 0 0 0 0 0 0 0 0 0 0 0 0 0 0 0 0 0 0 0 0 0 0 0 0 0 0 0 0 0 0 0
0 0 0 0 0 0 0 0 0 0 0 0 0 0 0 0 0 0 0 0 0 0 0 0 0 0 0 0 0 0 0 0 0 0 0 0 0 0 0 0 0 0 0
0 0 0 0 0 0 0 0 0 0 0 0 0 0 0 0 0 0 0 0 0 0 0 0 0 0 0 0 0 0 0 0 0 0 0 0 0 0 0 0 0 0 0
0 0 0 0 0 0 0 0 0 0 0 0 0 0 0 0 0 0 0 0 0 0 0 0 0 0 0 0 0 0 0 0 0 0 0 0 0 0 0 0 0 0 0
0 0 0 0 0 0 0 0 0 0 0 0 0 0 0 0 0 0 0 0 0 0 0 0 0 0 0 0 0 0 0 0 0 0 0 0 0 0 0 0 0 0 0
0 0 0 0 0 0 0 0 0 0 0 0 0 0 0 0 0 0 0 0 0 0 0 0 0 0 0 0 0 0 0 0 0 0 0 0 0 0 0 0 0 0 0
0 0 0 0 0 0 0 0 0 0 0 0 0 0 0 0 0 0 0 0 0 0 0 0 0 0 0 0 0 0 0 0 0 0 0 0 0 0 0 0 0 0 0
0 0 0 0 0 0 0 0 0 0 0 0 0 0 0 0 0 0 0 0 0 0 0 0 0 0 0 0 0 0 0 0 0 0 0 0 0 0 0 0 0 0 0
0 0 0 0 0 0 0 0 0 0 0 0 0 0 0 0 0 0 0 0 0 0 0 0 0 0 0 0 0 0 0 0 0 0 0 0 0 0 0 0 0 0 0
0 0 0 0 0 0 0 0 0 0 0 0 0 0 0 0 0 0 0 0 0 0 0 0 0 0 0 0 0 0 0 0 0 0 0 0 0 0 0 0 0 0 0
Wind_Speed
1 1 2 5 6 6 6 6 7 7 7 7 8 8 8 8 9 8 8 8 8 8 9 9 9 9 9 8 7 7 7 7 7 7 7 6 6 6 6 6 6 4 7
2 1 3 5 5 5 5 6 6 7 7 7 7 7 7 8 8 8 8 8 8 8 8 8 8 9 9 8 8 7 7 7 7 7 7 5 5 6 6 5 5 4 7
3 2 3 5 5 5 5 6 6 6 6 6 7 7 7 7 8 8 8 8 8 8 8 8 8 8 8 8 8 7 7 7 7 7 7 4 3 5 5 5 5 6 6
3 2 3 5 5 5 5 5 6 6 6 6 6 7 7 7 7 8 8 7 7 7 8 8 8 7 8 8 8 8 8 7 7 7 4 3 2 5 6 5 5 6 6
3 2 2 5 5 4 4 5 5 5 5 6 6 7 7 7 7 7 7 7 7 7 7 7 7 7 8 8 8 8 8 8 7 5 3 3 2 4 5 5 5 6 6
3 2 1 4 4 4 4 4 4 4 5 5 6 6 6 6 7 7 6 7 7 7 7 7 7 7 7 7 8 8 8 8 6 4 3 2 2 3 5 5 5 5 5
2 2 1 3 3 3 3 3 3 4 5 5 6 6 6 6 6 6 6 6 6 6 7 7 7 7 7 7 7 8 8 8 5 3 2 2 1 3 4 5 5 4 4
3 2 1 2 3 3 4 4 4 4 5 5 5 6 5 5 5 5 5 5 5 6 6 6 6 6 7 7 7 8 8 7 5 3 2 1 2 3 4 4 4 4 4
3 2 2 2 2 3 4 4 4 5 5 6 6 5 5 5 5 5 5 5 5 6 6 6 5 6 6 7 7 7 7 8 4 2 2 1 2 3 3 3 3 4 4
3 2 2 2 2 2 2 4 4 5 6 6 6 6 5 5 5 5 5 5 5 6 6 6 6 7 7 7 7 7 7 5 3 2 1 1 3 3 4 4 4 4 5
2 2 2 2 2 2 2 3 4 5 5 6 5 6 5 4 3 4 5 6 5 6 7 7 8 8 8 7 7 7 5 2 2 2 1 2 3 3 3 4 5 5 5
1 1 1 2 2 2 2 3 3 3 3 4 3 4 3 3 3 4 6 7 7 7 8 8 8 7 6 4 5 6 3 3 2 2 2 3 3 4 4 5 5 5 6
2 1 1 1 2 2 2 2 2 2 2 3 3 3 3 3 3 3 3 4 4 6 4 5 5 4 3 3 3 3 3 2 2 2 3 5 4 4 5 5 5 6 6
2 1 1 2 2 2 2 2 2 1 2 2 2 2 2 2 3 3 2 3 3 2 3 3 3 3 3 4 3 3 3 2 2 2 3 6 5 5 5 5 5 6 6
2 2 2 2 2 2 2 1 2 1 1 1 1 2 2 2 2 2 2 2 2 2 2 3 3 3 4 4 4 4 4 3 3 3 3 6 6 6 6 6 6 7 7
2 2 2 2 2 2 2 1 1 1 1 1 1 1 2 2 2 2 2 2 2 2 2 2 2 3 3 3 4 4 4 3 4 4 4 5 8 8 8 7 7 7 7
3 2 3 3 2 2 2 1 1 1 1 1 1 1 2 2 2 2 2 2 2 2 2 3 3 3 3 3 4 4 4 4 4 5 5 4 4 8 9 9 8 8 7
3 3 2 3 3 2 2 1 1 1 1 1 1 1 1 2 2 2 2 1 1 2 2 2 2 3 3 3 3 4 4 4 5 5 5 5 4 5 7 9 9 9 8
4 3 3 2 3 2 2 1 2 2 1 1 1 1 1 2 2 2 2 1 2 2 2 2 2 2 3 3 3 4 4 4 4 5 5 5 5 5 5 7 10 10 9
3 3 3 3 2 2 2 2 2 2 2 2 1 1 1 1 2 2 2 2 2 2 2 2 3 3 2 3 4 5 4 4 4 4 4 4 4 5 5 5 5 6 9
3 3 3 3 2 3 2 1 1 1 1 1 1 1 1 1 2 2 2 2 2 2 2 2 2 3 2 2 3 3 3 4 4 3 3 3 4 4 4 5 4 4 4
3 3 3 3 3 3 2 2 1 1 1 1 1 2 2 1 1 2 2 2 2 2 2 2 2 2 1 1 2 2 2 3 3 3 3 3 3 3 4 4 4 4 3
3 3 3 3 3 3 3 2 3 2 2 2 2 1 1 1 1 1 2 2 2 2 2 2 2 3 1 1 1 2 2 1 1 2 2 2 2 2 2 2 3 3 3
4 3 3 3 3 3 4 4 4 2 1 1 0 0 1 1 1 1 2 2 2 2 2 2 2 1 2 1 1 2 1 2 2 1 2 2 2 2 2 2 2 2 2
4 3 3 3 2 3 3 4 4 2 1 0 1 1 1 1 1 1 1 2 2 1 2 1 2 2 2 2 1 1 1 2 1 2 0 2 2 2 1 1 2 2 2
2 2 2 3 3 3 3 3 4 4 3 2 1 1 0 1 1 1 1 1 1 1 2 2 2 2 2 2 1 1 2 1 1 2 1 1 1 2 1 1 1 1 2
Wind_Direction
235 231 151 114 104 97 89 86 89 88 90 87 90 93 96 96 95 94 93 92 90 88 83 79 81 82 83 85 89 89 93 96 93 95 98 99 99 103 104 107 107 103 111
164 169 141 119 112 106 94 90 91 89 86 87 88 90 93 95 94 94 94 93 91 88 86 83 81 81 80 80 82 84 86 89 92 92 88 85 95 100 104 111 114 110 114
133 136 133 124 117 106 97 93 90 93 92 90 90 91 93 96 96 95 93 92 90 89 87 83 83 82 79 79 81 80 82 86 89 89 79 57 70 100 104 109 112 111 110
137 129 133 129 116 107 99 95 90 87 89 89 93 93 94 94 95 93 91 88 88 87 87 88 85 84 82 80 79 79 76 79 85 86 69 52 50 90 95 99 105 107 105
125 115 134 131 119 110 102 97 91 86 85 85 89 93 95 93 91 91 91 89 85 83 82 84 81 79 80 77 77 76 73 74 80 72 60 49 39 87 93 95 98 106 105
115 105 116 131 123 114 104 94 92 90 88 87 90 92 92 93 93 92 91 89 85 83 83 82 78 77 76 75 75 73 73 73 71 64 58 50 45 91 99 98 94 104 108
123 99 93 123 116 102 93 88 90 95 94 92 93 91 89 88 87 87 88 87 85 83 84 80 75 74 74 74 74 74 76 76 73 67 60 53 58 93 101 100 94 105 109
122 106 86 100 85 71 64 67 79 87 91 89 88 88 87 83 81 80 80 81 81 81 81 76 75 73 73 72 71 72 74 72 71 63 52 42 84 97 101 102 97 102 108
95 84 65 56 60 65 62 69 74 80 82 80 77 77 80 78 81 76 72 75 74 80 82 78 73 71 70 68 69 70 73 71 64 49 48 32 75 88 92 97 100 99 101
76 66 59 55 52 46 42 66 79 80 79 77 69 66 68 60 60 61 63 66 70 75 76 71 70 65 65 65 64 65 67 62 47 35 19 40 77 79 79 86 100 107 104
77 62 64 60 54 56 51 59 63 67 65 62 55 57 55 45 42 45 54 61 64 71 70 67 64 59 56 54 59 60 57 46 37 27 10 54 77 85 89 92 101 107 107
102 59 73 73 70 67 62 57 46 50 51 50 49 47 47 47 43 47 42 51 58 64 65 62 58 53 48 37 45 51 46 39 35 17 20 46 65 81 89 92 100 104 107
152 120 96 96 88 85 68 68 53 52 55 56 58 58 53 51 45 42 37 35 42 52 51 51 50 45 44 43 43 46 45 41 28 10 13 37 56 77 80 79 87 94 93
129 131 90 90 88 86 85 79 73 67 65 58 55 61 68 60 51 46 43 35 39 42 48 47 50 46 46 46 47 49 46 43 33 15 9 31 52 68 72 73 80 86 87
140 140 128 104 91 84 84 75 75 68 72 70 65 63 81 82 67 56 43 39 42 47 52 49 51 52 49 46 45 49 45 42 37 33 13 29 46 59 67 73 78 80 84
154 153 135 116 111 96 86 80 73 68 69 72 70 75 89 94 95 82 55 44 44 52 55 62 60 62 55 53 47 46 46 45 45 45 35 27 38 48 54 62 74 77 77
161 145 148 143 124 112 102 93 81 76 82 79 68 73 98 108 111 105 88 62 46 55 64 66 60 62 61 54 47 47 51 49 52 50 43 35 30 40 44 53 63 67 66
143 141 151 138 127 122 114 101 78 67 72 61 60 61 90 111 112 104 96 78 69 69 70 79 67 68 59 55 52 45 48 48 52 53 49 42 37 32 33 43 52 58 59
151 146 137 126 130 130 118 99 87 78 69 54 59 60 76 97 107 109 107 97 89 81 69 82 69 76 76 67 66 54 46 46 45 50 47 43 41 39 34 34 42 46 48
148 143 135 133 130 119 100 80 65 59 47 47 54 55 76 94 110 110 109 97 97 93 75 78 83 66 77 80 75 62 47 42 44 43 41 41 41 42 40 37 30 26 33
140 138 141 141 143 129 115 106 89 68 37 33 31 43 64 83 109 115 113 100 101 108 109 105 100 83 66 70 79 57 36 40 45 37 34 40 36 36 40 39 34 26 16
167 172 163 162 159 159 149 136 126 122 87 59 27 37 49 69 93 122 127 127 120 116 100 103 112 107 77 57 100 97 37 12 18 29 30 39 29 31 34 35 36 31 18
193 196 189 182 165 158 136 106 83 64 48 37 20 17 18 52 72 100 127 131 128 133 142 140 130 125 130 52 72 123 130 181 329 356 19 29 23 29 18 22 30 24 17
210 198 180 168 158 149 139 135 133 130 145 216 229 312 19 45 58 72 118 126 129 131 141 156 131 123 127 121 51 52 106 144 144 6 347 360 10 22 12 13 13 13 12
193 186 178 155 150 148 147 148 142 132 141 125 84 75 47 30 47 66 109 123 134 139 146 140 128 124 126 136 136 113 76 68 99 141 251 320 347 346 356 353 2 2 360
164 162 160 155 158 155 151 152 153 151 144 129 116 110 31 9 13 39 91 111 145 149 160 165 156 144 137 125 122 127 143 148 165 152 174 242 303 309 329 353 5 352 356